| time (UTC) | temp F | wind direction | speed MPH | gust MPH | rain 1hr in | rain 24hr in | rain mn in | humidity % | barometer mb |
| 20260509065511 | 59 | 141 | 0.0 | 1.0 | 0.00 | 0.00 | 0.00 | 68 | 1008.7 |
| 20260509065012 | 59 | 141 | 0.0 | 2.0 | 0.00 | 0.00 | 0.00 | 68 | 1008.8 |
| 20260509064532 | 59 | 0 | 0.0 | 2.0 | 0.00 | 0.00 | 0.00 | 68 | 1009.1 |
| 20260509064010 | 59 | 141 | 1.0 | 2.0 | 0.00 | 0.00 | 0.00 | 68 | 1009.2 |
| 20260509063516 | 59 | 141 | 0.0 | 1.0 | 0.00 | 0.00 | 0.00 | 68 | 1009.1 |
| 20260509063032 | 60 | 146 | 0.0 | 0.0 | 0.00 | 0.00 | 0.00 | 67 | 1009.0 |
| 20260509062514 | 60 | 0 | 0.0 | 0.0 | 0.00 | 0.00 | 0.00 | 67 | 1008.9 |
| 20260509062014 | 60 | 0 | 0.0 | 0.0 | 0.00 | 0.00 | 0.00 | 65 | 1009.0 |
| 20260509061532 | 60 | 146 | 0.0 | 0.0 | 0.00 | 0.00 | 0.00 | 65 | 1009.0 |
| 20260509061015 | 60 | 0 | 0.0 | 0.0 | 0.00 | 0.00 | 0.00 | 66 | 1009.0 |
| 20260509060510 | 60 | 146 | 0.0 | 0.0 | 0.00 | 0.00 | 0.00 | 63 | 1009.1 |
| 20260509060032 | 60 | 0 | 0.0 | 1.0 | 0.00 | 0.00 | 0.00 | 62 | 1009.1 |
| 20260509055511 | 60 | 146 | 0.0 | 1.0 | 0.00 | 0.00 | 0.00 | 62 | 1009.1 |
| 20260509055013 | 60 | 0 | 0.0 | 0.0 | 0.00 | 0.00 | 0.00 | 62 | 1009.0 |
| 20260509054533 | 61 | 0 | 0.0 | 0.0 | 0.00 | 0.00 | 0.00 | 62 | 1009.1 |
| 20260509054012 | 61 | 0 | 0.0 | 0.0 | 0.00 | 0.00 | 0.00 | 62 | 1009.0 |
| 20260509053511 | 61 | 0 | 0.0 | 0.0 | 0.00 | 0.00 | 0.00 | 62 | 1009.0 |
| 20260509053046 | 61 | 0 | 0.0 | 1.0 | 0.00 | 0.00 | 0.00 | 61 | 1009.0 |
| 20260509052511 | 61 | 0 | 0.0 | 1.0 | 0.00 | 0.00 | 0.00 | 61 | 1009.0 |
| 20260509052012 | 61 | 203 | 0.0 | 3.0 | 0.00 | 0.00 | 0.00 | 60 | 1009.0 |
| 20260509051535 | 61 | 137 | 0.0 | 3.0 | 0.00 | 0.00 | 0.00 | 60 | 1009.0 |
| 20260509051011 | 61 | 163 | 0.0 | 3.0 | 0.00 | 0.00 | 0.00 | 60 | 1008.9 |
| 20260509050511 | 61 | 163 | 0.0 | 3.0 | 0.00 | 0.00 | 0.00 | 60 | 1008.9 |
| 20260509050030 | 61 | 146 | 0.0 | 4.0 | 0.00 | 0.00 | 0.00 | 60 | 1008.8 |
| 20260509045519 | 61 | 187 | 1.0 | 4.0 | 0.00 | 0.00 | 0.00 | 60 | 1008.9 |
| 20260509045012 | 61 | 150 | 1.0 | 4.0 | 0.00 | 0.00 | 0.00 | 60 | 1008.9 |
| 20260509044530 | 62 | 138 | 1.0 | 3.0 | 0.00 | 0.00 | 0.00 | 59 | 1008.8 |
| 20260509044011 | 62 | 132 | 1.0 | 3.0 | 0.00 | 0.00 | 0.00 | 59 | 1008.9 |
| 20260509043513 | 62 | 131 | 1.0 | 3.0 | 0.00 | 0.00 | 0.00 | 59 | 1008.9 |
| 20260509043032 | 62 | 154 | 1.0 | 3.0 | 0.00 | 0.00 | 0.00 | 59 | 1009.0 |
| 20260509042512 | 62 | 205 | 1.0 | 5.0 | 0.00 | 0.00 | 0.00 | 59 | 1008.9 |
| 20260509042018 | 62 | 169 | 1.0 | 5.0 | 0.00 | 0.00 | 0.00 | 59 | 1009.1 |
| 20260509041533 | 62 | 150 | 2.0 | 5.0 | 0.00 | 0.00 | 0.00 | 59 | 1008.9 |
| 20260509041015 | 62 | 153 | 1.0 | 4.0 | 0.00 | 0.00 | 0.00 | 58 | 1008.9 |
| 20260509040514 | 62 | 142 | 1.0 | 4.0 | 0.00 | 0.00 | 0.00 | 59 | 1008.9 |
| 20260509040032 | 62 | 147 | 1.0 | 4.0 | 0.00 | 0.00 | 0.00 | 58 | 1008.9 |
| 20260509035511 | 62 | 182 | 1.0 | 4.0 | 0.00 | 0.00 | 0.00 | 58 | 1008.9 |
| 20260509035012 | 62 | 150 | 0.0 | 2.0 | 0.00 | 0.00 | 0.00 | 58 | 1009.0 |
| 20260509034537 | 62 | 0 | 0.0 | 2.0 | 0.00 | 0.00 | 0.00 | 58 | 1009.1 |
| 20260509034013 | 62 | 0 | 0.0 | 2.0 | 0.00 | 0.00 | 0.00 | 57 | 1009.2 |
| 20260509033512 | 62 | 174 | 0.0 | 3.0 | 0.00 | 0.00 | 0.00 | 57 | 1009.3 |
| 20260509033030 | 62 | 145 | 1.0 | 3.0 | 0.00 | 0.00 | 0.00 | 57 | 1009.3 |
| 20260509032513 | 63 | 169 | 1.0 | 4.0 | 0.00 | 0.00 | 0.00 | 57 | 1009.4 |
| 20260509032009 | 63 | 201 | 1.0 | 4.0 | 0.00 | 0.00 | 0.00 | 57 | 1009.3 |
| 20260509031549 | 63 | 155 | 1.0 | 4.0 | 0.00 | 0.00 | 0.00 | 57 | 1009.3 |
| 20260509031012 | 63 | 239 | 1.0 | 2.0 | 0.00 | 0.00 | 0.00 | 56 | 1009.5 |
| 20260509030515 | 63 | 0 | 0.0 | 3.0 | 0.00 | 0.00 | 0.00 | 56 | 1009.5 |
| 20260509030054 | 63 | 136 | 0.0 | 5.0 | 0.00 | 0.00 | 0.00 | 56 | 1009.5 |
| 20260509025512 | 63 | 205 | 1.0 | 5.0 | 0.00 | 0.00 | 0.00 | 56 | 1009.4 |
| 20260509025010 | 63 | 141 | 1.0 | 5.0 | 0.00 | 0.00 | 0.00 | 56 | 1009.3 |
| 20260509024538 | 64 | 144 | 2.0 | 5.0 | 0.00 | 0.00 | 0.00 | 55 | 1009.4 |
| 20260509024014 | 64 | 169 | 1.0 | 5.0 | 0.00 | 0.00 | 0.00 | 55 | 1009.6 |
| 20260509023511 | 64 | 144 | 1.0 | 4.0 | 0.00 | 0.00 | 0.00 | 55 | 1009.8 |
| 20260509023036 | 64 | 131 | 1.0 | 4.0 | 0.00 | 0.00 | 0.00 | 54 | 1009.9 |
| 20260509022510 | 64 | 143 | 1.0 | 3.0 | 0.00 | 0.00 | 0.00 | 54 | 1010.0 |
| 20260509022013 | 64 | 121 | 0.0 | 2.0 | 0.00 | 0.00 | 0.00 | 53 | 1010.0 |
| 20260509021538 | 64 | 120 | 0.0 | 2.0 | 0.00 | 0.00 | 0.00 | 53 | 1010.0 |
| 20260509021010 | 64 | 145 | 0.0 | 2.0 | 0.00 | 0.00 | 0.00 | 53 | 1010.0 |
| 20260509020512 | 65 | 166 | 1.0 | 2.0 | 0.00 | 0.00 | 0.00 | 52 | 1009.8 |
| 20260509020032 | 65 | 147 | 1.0 | 3.0 | 0.00 | 0.00 | 0.00 | 52 | 1009.8 |
| 20260509015511 | 65 | 169 | 1.0 | 4.0 | 0.00 | 0.00 | 0.00 | 52 | 1009.8 |
| 20260509015012 | 65 | 207 | 1.0 | 4.0 | 0.00 | 0.00 | 0.00 | 52 | 1009.8 |
| 20260509014529 | 65 | 188 | 1.0 | 5.0 | 0.00 | 0.00 | 0.00 | 51 | 1009.8 |
| 20260509014015 | 65 | 160 | 1.0 | 7.0 | 0.00 | 0.00 | 0.00 | 51 | 1009.7 |
| 20260509013513 | 65 | 205 | 2.0 | 7.0 | 0.00 | 0.00 | 0.00 | 51 | 1009.7 |
| 20260509013030 | 65 | 245 | 1.0 | 4.0 | 0.00 | 0.00 | 0.00 | 51 | 1009.7 |
| 20260509012512 | 65 | 164 | 1.0 | 4.0 | 0.00 | 0.00 | 0.00 | 51 | 1009.8 |
| 20260509012019 | 65 | 184 | 1.0 | 4.0 | 0.00 | 0.00 | 0.00 | 51 | 1009.8 |
| 20260509011530 | 65 | 160 | 2.0 | 4.0 | 0.00 | 0.00 | 0.00 | 50 | 1009.6 |
| 20260509011011 | 65 | 181 | 1.0 | 3.0 | 0.00 | 0.00 | 0.00 | 50 | 1009.6 |
| 20260509010515 | 65 | 159 | 1.0 | 3.0 | 0.00 | 0.00 | 0.00 | 50 | 1009.6 |
| 20260509010032 | 66 | 201 | 1.0 | 6.0 | 0.00 | 0.00 | 0.00 | 50 | 1009.8 |
| 20260509005510 | 66 | 217 | 1.0 | 6.0 | 0.00 | 0.00 | 0.00 | 49 | 1009.7 |
| 20260509005014 | 66 | 236 | 2.0 | 6.0 | 0.00 | 0.00 | 0.00 | 49 | 1009.6 |
| 20260509004546 | 66 | 168 | 1.0 | 7.0 | 0.00 | 0.00 | 0.00 | 49 | 1009.7 |
| 20260509004013 | 67 | 288 | 3.0 | 8.0 | 0.00 | 0.00 | 0.00 | 47 | 1009.6 |
| 20260509003515 | 67 | 170 | 3.0 | 8.0 | 0.00 | 0.00 | 0.00 | 47 | 1009.7 |
| 20260509003036 | 67 | 200 | 3.0 | 10.0 | 0.00 | 0.00 | 0.00 | 47 | 1009.6 |
| 20260509002511 | 67 | 272 | 3.0 | 10.0 | 0.00 | 0.00 | 0.00 | 46 | 1009.6 |
| 20260509002012 | 68 | 264 | 4.0 | 12.0 | 0.00 | 0.00 | 0.00 | 46 | 1009.6 |
| 20260509001532 | 68 | 176 | 5.0 | 14.0 | 0.00 | 0.00 | 0.00 | 46 | 1009.5 |
| 20260509001011 | 68 | 183 | 6.0 | 14.0 | 0.00 | 0.00 | 0.00 | 45 | 1009.5 |
| 20260509000512 | 69 | 282 | 4.0 | 14.0 | 0.00 | 0.00 | 0.00 | 46 | 1009.8 |
| 20260509000030 | 69 | 248 | 6.0 | 13.0 | 0.00 | 0.00 | 0.00 | 45 | 1009.5 |
| 20260508235512 | 69 | 139 | 4.0 | 13.0 | 0.00 | 0.00 | 0.00 | 46 | 1009.7 |
| 20260508235013 | 69 | 179 | 5.0 | 13.0 | 0.00 | 0.00 | 0.00 | 45 | 1009.6 |
| 20260508234529 | 69 | 261 | 7.0 | 16.0 | 0.00 | 0.00 | 0.00 | 45 | 1009.8 |
| 20260508234011 | 69 | 196 | 4.0 | 16.0 | 0.00 | 0.00 | 0.00 | 46 | 1009.7 |
| 20260508233515 | 69 | 160 | 7.0 | 16.0 | 0.00 | 0.00 | 0.00 | 45 | 1009.8 |
| 20260508233032 | 70 | 174 | 4.0 | 17.0 | 0.00 | 0.00 | 0.00 | 46 | 1009.8 |
| 20260508232510 | 69 | 259 | 5.0 | 17.0 | 0.00 | 0.00 | 0.00 | 46 | 1009.8 |
| 20260508232014 | 69 | 184 | 6.0 | 17.0 | 0.00 | 0.00 | 0.00 | 45 | 1009.8 |
| 20260508231530 | 70 | 245 | 6.0 | 13.0 | 0.00 | 0.00 | 0.00 | 46 | 1009.8 |
| 20260508231011 | 70 | 233 | 7.0 | 13.0 | 0.00 | 0.00 | 0.00 | 45 | 1009.9 |
| 20260508230511 | 70 | 273 | 4.0 | 17.0 | 0.00 | 0.00 | 0.00 | 45 | 1009.8 |
| 20260508230030 | 70 | 214 | 7.0 | 17.0 | 0.00 | 0.00 | 0.00 | 44 | 1009.7 |
| 20260508225510 | 70 | 243 | 7.0 | 17.0 | 0.00 | 0.00 | 0.00 | 44 | 1010.0 |
| 20260508225012 | 71 | 5 | 6.0 | 15.0 | 0.00 | 0.00 | 0.00 | 44 | 1010.0 |
| 20260508224536 | 71 | 144 | 5.0 | 13.0 | 0.00 | 0.00 | 0.00 | 43 | 1010.2 |
| 20260508224010 | 71 | 195 | 5.0 | 11.0 | 0.00 | 0.00 | 0.00 | 43 | 1010.0 |
| 20260508223511 | 72 | 207 | 6.0 | 11.0 | 0.00 | 0.00 | 0.00 | 43 | 1010.1 |
| 20260508223045 | 72 | 268 | 6.0 | 13.0 | 0.00 | 0.00 | 0.00 | 42 | 1009.8 |
| 20260508222510 | 72 | 169 | 7.0 | 14.0 | 0.00 | 0.00 | 0.00 | 42 | 1009.8 |
| 20260508222017 | 72 | 204 | 6.0 | 15.0 | 0.00 | 0.00 | 0.00 | 42 | 1009.7 |
| 20260508221532 | 72 | 160 | 6.0 | 15.0 | 0.00 | 0.00 | 0.00 | 42 | 1009.7 |
| 20260508221010 | 72 | 303 | 7.0 | 18.0 | 0.00 | 0.00 | 0.00 | 41 | 1009.7 |
| 20260508220515 | 72 | 214 | 7.0 | 18.0 | 0.00 | 0.00 | 0.00 | 41 | 1009.5 |
| 20260508220029 | 72 | 171 | 6.0 | 15.0 | 0.00 | 0.00 | 0.00 | 41 | 1009.6 |
| 20260508215516 | 72 | 153 | 7.0 | 15.0 | 0.00 | 0.00 | 0.00 | 40 | 1009.6 |
| 20260508215011 | 73 | 153 | 6.0 | 15.0 | 0.00 | 0.00 | 0.00 | 39 | 1009.5 |
| 20260508214531 | 73 | 141 | 4.0 | 13.0 | 0.00 | 0.00 | 0.00 | 41 | 1009.6 |
| 20260508214011 | 73 | 221 | 6.0 | 15.0 | 0.00 | 0.00 | 0.00 | 41 | 1009.7 |
| 20260508213511 | 72 | 149 | 6.0 | 15.0 | 0.00 | 0.00 | 0.00 | 42 | 1009.7 |
| 20260508213029 | 73 | 252 | 6.0 | 15.0 | 0.00 | 0.00 | 0.00 | 42 | 1009.6 |
| 20260508212511 | 72 | 191 | 6.0 | 12.0 | 0.00 | 0.00 | 0.00 | 42 | 1009.9 |
| 20260508212014 | 72 | 148 | 6.0 | 13.0 | 0.00 | 0.00 | 0.00 | 42 | 1009.9 |
| 20260508211533 | 72 | 154 | 4.0 | 17.0 | 0.00 | 0.00 | 0.00 | 41 | 1010.0 |
| 20260508211010 | 72 | 259 | 9.0 | 17.0 | 0.00 | 0.00 | 0.00 | 42 | 1010.1 |
| 20260508210513 | 72 | 168 | 10.0 | 15.0 | 0.00 | 0.00 | 0.00 | 41 | 1010.2 |
| 20260508210030 | 72 | 253 | 10.0 | 15.0 | 0.00 | 0.00 | 0.00 | 40 | 1010.2 |
| 20260508205509 | 72 | 135 | 9.0 | 15.0 | 0.00 | 0.00 | 0.00 | 40 | 1010.2 |
| 20260508205012 | 72 | 195 | 8.0 | 15.0 | 0.00 | 0.00 | 0.00 | 42 | 1010.3 |
| 20260508204534 | 72 | 287 | 7.0 | 16.0 | 0.00 | 0.00 | 0.00 | 42 | 1010.2 |
| 20260508204010 | 72 | 290 | 8.0 | 16.0 | 0.00 | 0.00 | 0.00 | 40 | 1010.3 |
| 20260508203512 | 72 | 261 | 8.0 | 16.0 | 0.00 | 0.00 | 0.00 | 42 | 1010.3 |
| 20260508203030 | 72 | 229 | 5.0 | 15.0 | 0.00 | 0.00 | 0.00 | 41 | 1010.4 |
| 20260508202510 | 72 | 260 | 5.0 | 15.0 | 0.00 | 0.00 | 0.00 | 42 | 1010.6 |
| 20260508202021 | 72 | 269 | 8.0 | 15.0 | 0.00 | 0.00 | 0.00 | 42 | 1010.8 |
| 20260508201534 | 72 | 172 | 7.0 | 19.0 | 0.00 | 0.00 | 0.00 | 41 | 1010.8 |
| 20260508201016 | 72 | 165 | 8.0 | 19.0 | 0.00 | 0.00 | 0.00 | 42 | 1011.0 |
| 20260508200515 | 72 | 317 | 7.0 | 16.0 | 0.00 | 0.00 | 0.00 | 40 | 1010.9 |
| 20260508200033 | 72 | 7 | 5.0 | 16.0 | 0.00 | 0.00 | 0.00 | 42 | 1011.1 |
| 20260508195516 | 72 | 290 | 7.0 | 16.0 | 0.00 | 0.00 | 0.00 | 40 | 1011.1 |
| 20260508195014 | 73 | 247 | 5.0 | 12.0 | 0.00 | 0.00 | 0.00 | 43 | 1011.3 |
| 20260508194538 | 73 | 253 | 4.0 | 13.0 | 0.00 | 0.00 | 0.00 | 43 | 1011.2 |
| 20260508194013 | 72 | 144 | 5.0 | 16.0 | 0.00 | 0.00 | 0.00 | 43 | 1011.2 |
| 20260508193512 | 72 | 235 | 7.0 | 16.0 | 0.00 | 0.00 | 0.00 | 42 | 1011.3 |
| 20260508193030 | 71 | 241 | 4.0 | 18.0 | 0.00 | 0.00 | 0.00 | 41 | 1011.6 |
| 20260508192514 | 72 | 210 | 9.0 | 18.0 | 0.00 | 0.00 | 0.00 | 40 | 1011.8 |
| 20260508192016 | 72 | 305 | 6.0 | 20.0 | 0.00 | 0.00 | 0.00 | 43 | 1011.7 |
| 20260508191537 | 72 | 316 | 7.0 | 20.0 | 0.00 | 0.00 | 0.00 | 42 | 1011.8 |
| 20260508191014 | 72 | 139 | 5.0 | 15.0 | 0.00 | 0.00 | 0.00 | 44 | 1011.8 |
| 20260508190514 | 71 | 238 | 6.0 | 15.0 | 0.00 | 0.00 | 0.00 | 41 | 1011.9 |
| 20260508190032 | 71 | 178 | 5.0 | 14.0 | 0.00 | 0.00 | 0.00 | 42 | 1011.9 |
| 20260508185513 | 71 | 304 | 8.0 | 14.0 | 0.00 | 0.00 | 0.00 | 42 | 1011.9 |
| 20260508185015 | 72 | 163 | 6.0 | 16.0 | 0.00 | 0.00 | 0.00 | 41 | 1011.8 |
| 20260508184532 | 72 | 159 | 4.0 | 16.0 | 0.00 | 0.00 | 0.00 | 41 | 1011.8 |
| 20260508184013 | 72 | 158 | 6.0 | 16.0 | 0.00 | 0.00 | 0.00 | 40 | 1011.6 |
| 20260508183519 | 72 | 203 | 5.0 | 12.0 | 0.00 | 0.00 | 0.00 | 40 | 1011.6 |
| 20260508183034 | 72 | 191 | 3.0 | 12.0 | 0.00 | 0.00 | 0.00 | 42 | 1011.5 |
| 20260508182515 | 71 | 254 | 4.0 | 13.0 | 0.00 | 0.00 | 0.00 | 42 | 1011.7 |
| 20260508182015 | 71 | 214 | 5.0 | 13.0 | 0.00 | 0.00 | 0.00 | 41 | 1011.9 |
| 20260508181533 | 71 | 252 | 2.0 | 19.0 | 0.00 | 0.00 | 0.00 | 42 | 1012.0 |
| 20260508181011 | 71 | 344 | 5.0 | 19.0 | 0.00 | 0.00 | 0.00 | 41 | 1012.2 |
| 20260508180512 | 71 | 205 | 5.0 | 13.0 | 0.00 | 0.00 | 0.00 | 43 | 1012.5 |
| 20260508180031 | 71 | 139 | 2.0 | 13.0 | 0.00 | 0.00 | 0.00 | 43 | 1012.4 |
| 20260508175514 | 70 | 155 | 5.0 | 13.0 | 0.00 | 0.00 | 0.00 | 42 | 1012.7 |
| 20260508175014 | 70 | 170 | 7.0 | 13.0 | 0.00 | 0.00 | 0.00 | 44 | 1012.8 |
| 20260508174533 | 70 | 229 | 3.0 | 16.0 | 0.00 | 0.00 | 0.00 | 44 | 1012.9 |
| 20260508174020 | 70 | 18 | 7.0 | 16.0 | 0.00 | 0.00 | 0.00 | 43 | 1013.0 |
| 20260508173511 | 70 | 285 | 5.0 | 16.0 | 0.00 | 0.00 | 0.00 | 43 | 1013.1 |
| 20260508173031 | 69 | 214 | 5.0 | 13.0 | 0.00 | 0.00 | 0.00 | 42 | 1013.2 |
| 20260508172517 | 69 | 260 | 6.0 | 13.0 | 0.00 | 0.00 | 0.00 | 45 | 1013.2 |
| 20260508172016 | 69 | 258 | 7.0 | 13.0 | 0.00 | 0.00 | 0.00 | 44 | 1013.4 |
| 20260508171532 | 69 | 165 | 4.0 | 11.0 | 0.00 | 0.00 | 0.00 | 44 | 1013.5 |
| 20260508171013 | 69 | 261 | 4.0 | 15.0 | 0.00 | 0.00 | 0.00 | 45 | 1013.4 |
| 20260508170513 | 68 | 280 | 7.0 | 15.0 | 0.00 | 0.00 | 0.00 | 42 | 1013.5 |
| 20260508170031 | 69 | 196 | 4.0 | 17.0 | 0.00 | 0.00 | 0.00 | 43 | 1013.6 |
| 20260508165513 | 69 | 215 | 8.0 | 17.0 | 0.00 | 0.00 | 0.00 | 45 | 1013.8 |
| 20260508165016 | 68 | 136 | 6.0 | 12.0 | 0.00 | 0.00 | 0.00 | 45 | 1014.0 |
| 20260508164530 | 68 | 213 | 4.0 | 12.0 | 0.00 | 0.00 | 0.00 | 45 | 1014.0 |
| 20260508164014 | 67 | 248 | 5.0 | 12.0 | 0.00 | 0.00 | 0.00 | 44 | 1014.0 |
| 20260508163513 | 67 | 278 | 7.0 | 14.0 | 0.00 | 0.00 | 0.00 | 46 | 1014.2 |
| 20260508163035 | 67 | 191 | 6.0 | 14.0 | 0.00 | 0.00 | 0.00 | 44 | 1014.4 |
| 20260508162514 | 67 | 253 | 6.0 | 15.0 | 0.00 | 0.00 | 0.00 | 45 | 1014.4 |
| 20260508162014 | 67 | 140 | 5.0 | 15.0 | 0.00 | 0.00 | 0.00 | 46 | 1014.5 |
| 20260508161532 | 67 | 276 | 7.0 | 14.0 | 0.00 | 0.00 | 0.00 | 49 | 1014.5 |
| 20260508161012 | 67 | 139 | 3.0 | 15.0 | 0.00 | 0.00 | 0.00 | 49 | 1014.6 |
| 20260508160515 | 66 | 274 | 6.0 | 15.0 | 0.00 | 0.00 | 0.00 | 48 | 1014.7 |
| 20260508160032 | 66 | 281 | 4.0 | 14.0 | 0.00 | 0.00 | 0.00 | 51 | 1014.8 |
| 20260508155516 | 66 | 229 | 7.0 | 14.0 | 0.00 | 0.00 | 0.00 | 47 | 1014.7 |
| 20260508155015 | 66 | 315 | 7.0 | 14.0 | 0.00 | 0.00 | 0.00 | 45 | 1014.7 |
| 20260508154531 | 66 | 263 | 5.0 | 13.0 | 0.00 | 0.00 | 0.00 | 47 | 1014.9 |
| 20260508154020 | 66 | 304 | 5.0 | 11.0 | 0.00 | 0.00 | 0.00 | 49 | 1014.9 |
| 20260508153515 | 66 | 269 | 4.0 | 11.0 | 0.00 | 0.00 | 0.00 | 48 | 1015.0 |
| 20260508153038 | 65 | 240 | 3.0 | 9.0 | 0.00 | 0.00 | 0.00 | 49 | 1015.1 |
| 20260508152516 | 65 | 233 | 3.0 | 10.0 | 0.00 | 0.00 | 0.00 | 51 | 1015.2 |
| 20260508152015 | 64 | 269 | 4.0 | 12.0 | 0.00 | 0.00 | 0.00 | 50 | 1015.2 |
| 20260508151530 | 64 | 302 | 6.0 | 12.0 | 0.00 | 0.00 | 0.00 | 49 | 1015.3 |
| 20260508151016 | 63 | 259 | 5.0 | 12.0 | 0.00 | 0.00 | 0.00 | 50 | 1015.4 |
| 20260508150514 | 63 | 274 | 7.0 | 12.0 | 0.00 | 0.00 | 0.00 | 50 | 1015.5 |
| 20260508150050 | 63 | 169 | 4.0 | 13.0 | 0.00 | 0.00 | 0.00 | 51 | 1015.5 |
| 20260508145513 | 63 | 274 | 7.0 | 13.0 | 0.00 | 0.00 | 0.00 | 49 | 1015.5 |
| 20260508145012 | 63 | 246 | 3.0 | 10.0 | 0.00 | 0.00 | 0.00 | 52 | 1015.7 |
| 20260508144531 | 63 | 191 | 4.0 | 13.0 | 0.00 | 0.00 | 0.00 | 52 | 1015.5 |
| 20260508144013 | 62 | 274 | 6.0 | 13.0 | 0.00 | 0.00 | 0.00 | 51 | 1015.5 |
| 20260508143514 | 62 | 289 | 6.0 | 13.0 | 0.00 | 0.00 | 0.00 | 50 | 1015.7 |
| 20260508143047 | 63 | 275 | 3.0 | 9.0 | 0.00 | 0.00 | 0.00 | 52 | 1015.6 |
| 20260508142514 | 62 | 148 | 5.0 | 9.0 | 0.00 | 0.00 | 0.00 | 51 | 1015.6 |
| 20260508142011 | 62 | 205 | 3.0 | 13.0 | 0.00 | 0.00 | 0.00 | 52 | 1015.5 |
| 20260508141532 | 62 | 231 | 6.0 | 13.0 | 0.00 | 0.00 | 0.00 | 51 | 1015.6 |
| 20260508141013 | 62 | 198 | 4.0 | 10.0 | 0.00 | 0.00 | 0.00 | 52 | 1015.5 |
| 20260508140516 | 61 | 215 | 3.0 | 9.0 | 0.00 | 0.00 | 0.00 | 53 | 1015.5 |
| 20260508140032 | 61 | 175 | 5.0 | 12.0 | 0.00 | 0.00 | 0.00 | 52 | 1015.5 |
| 20260508135517 | 60 | 224 | 4.0 | 12.0 | 0.00 | 0.00 | 0.00 | 53 | 1015.6 |
| 20260508135012 | 60 | 277 | 5.0 | 10.0 | 0.00 | 0.00 | 0.00 | 53 | 1015.8 |
| 20260508134530 | 60 | 287 | 6.0 | 12.0 | 0.00 | 0.00 | 0.00 | 53 | 1015.7 |
| 20260508134012 | 60 | 240 | 5.0 | 12.0 | 0.00 | 0.00 | 0.00 | 54 | 1015.7 |
| 20260508133513 | 59 | 225 | 5.0 | 12.0 | 0.00 | 0.00 | 0.00 | 54 | 1015.8 |
| 20260508133032 | 59 | 307 | 3.0 | 6.0 | 0.00 | 0.00 | 0.00 | 57 | 1015.6 |
| 20260508132513 | 59 | 293 | 2.0 | 4.0 | 0.00 | 0.00 | 0.00 | 57 | 1015.6 |
| 20260508132013 | 58 | 337 | 1.0 | 7.0 | 0.00 | 0.00 | 0.00 | 60 | 1015.5 |
| 20260508131533 | 58 | 236 | 2.0 | 7.0 | 0.00 | 0.00 | 0.00 | 58 | 1015.6 |
| 20260508131015 | 58 | 279 | 3.0 | 7.0 | 0.00 | 0.00 | 0.00 | 59 | 1015.6 |
| 20260508130512 | 57 | 222 | 3.0 | 7.0 | 0.00 | 0.00 | 0.00 | 59 | 1015.6 |
| 20260508130032 | 57 | 269 | 2.0 | 6.0 | 0.00 | 0.00 | 0.00 | 60 | 1015.5 |
| 20260508125514 | 57 | 168 | 2.0 | 6.0 | 0.00 | 0.00 | 0.00 | 61 | 1015.5 |
| 20260508125013 | 57 | 249 | 0.0 | 3.0 | 0.00 | 0.00 | 0.00 | 62 | 1015.7 |
| 20260508124533 | 56 | 132 | 0.0 | 2.0 | 0.00 | 0.00 | 0.00 | 64 | 1015.5 |
| 20260508124011 | 55 | 202 | 0.0 | 2.0 | 0.00 | 0.00 | 0.00 | 65 | 1015.6 |
| 20260508123514 | 54 | 202 | 0.0 | 2.0 | 0.00 | 0.00 | 0.00 | 66 | 1015.6 |
| 20260508123035 | 53 | 147 | 0.0 | 2.0 | 0.00 | 0.00 | 0.00 | 68 | 1015.6 |
| 20260508122513 | 53 | 138 | 0.0 | 2.0 | 0.00 | 0.00 | 0.00 | 68 | 1015.5 |
| 20260508122015 | 52 | 143 | 0.0 | 2.0 | 0.00 | 0.00 | 0.00 | 69 | 1015.5 |
| 20260508121532 | 52 | 120 | 0.0 | 2.0 | 0.00 | 0.00 | 0.00 | 69 | 1015.4 |
| 20260508121010 | 51 | 141 | 0.0 | 2.0 | 0.00 | 0.00 | 0.00 | 70 | 1015.5 |
| 20260508120511 | 51 | 133 | 0.0 | 1.0 | 0.00 | 0.00 | 0.00 | 70 | 1015.4 |
| 20260508120032 | 50 | 133 | 0.0 | 1.0 | 0.00 | 0.00 | 0.00 | 71 | 1015.4 |
| 20260508115512 | 50 | 133 | 0.0 | 1.0 | 0.00 | 0.00 | 0.00 | 72 | 1015.4 |
| 20260508115012 | 49 | 0 | 0.0 | 1.0 | 0.00 | 0.00 | 0.00 | 72 | 1015.2 |
| 20260508114534 | 49 | 132 | 0.0 | 1.0 | 0.00 | 0.00 | 0.00 | 74 | 1015.3 |
| 20260508114014 | 48 | 132 | 0.0 | 1.0 | 0.00 | 0.00 | 0.00 | 75 | 1015.2 |
| 20260508113514 | 48 | 132 | 0.0 | 1.0 | 0.00 | 0.00 | 0.00 | 77 | 1015.2 |
| 20260508113030 | 47 | 132 | 0.0 | 1.0 | 0.00 | 0.00 | 0.00 | 78 | 1015.1 |
| 20260508112513 | 46 | 132 | 0.0 | 1.0 | 0.00 | 0.00 | 0.00 | 77 | 1015.2 |
| 20260508112011 | 46 | 0 | 0.0 | 1.0 | 0.00 | 0.00 | 0.00 | 79 | 1015.1 |
| 20260508111530 | 45 | 132 | 0.0 | 1.0 | 0.00 | 0.00 | 0.00 | 79 | 1015.1 |
| 20260508111014 | 45 | 132 | 0.0 | 1.0 | 0.00 | 0.00 | 0.00 | 79 | 1014.9 |
| 20260508110514 | 44 | 132 | 0.0 | 1.0 | 0.00 | 0.00 | 0.00 | 79 | 1014.9 |
| 20260508110030 | 44 | 132 | 0.0 | 1.0 | 0.00 | 0.00 | 0.00 | 78 | 1015.0 |
| 20260508105512 | 44 | 132 | 0.0 | 1.0 | 0.00 | 0.00 | 0.00 | 78 | 1015.0 |
| 20260508105017 | 44 | 132 | 0.0 | 3.0 | 0.00 | 0.00 | 0.00 | 77 | 1014.9 |
| 20260508104533 | 44 | 142 | 0.0 | 3.0 | 0.00 | 0.00 | 0.00 | 78 | 1015.0 |
| 20260508104010 | 44 | 124 | 1.0 | 3.0 | 0.00 | 0.00 | 0.00 | 77 | 1014.9 |
| 20260508103511 | 44 | 136 | 0.0 | 3.0 | 0.00 | 0.00 | 0.00 | 78 | 1014.9 |
| 20260508103031 | 44 | 133 | 0.0 | 2.0 | 0.00 | 0.00 | 0.00 | 78 | 1014.8 |
| 20260508102513 | 44 | 143 | 0.0 | 2.0 | 0.00 | 0.00 | 0.00 | 78 | 1014.9 |
| 20260508102013 | 43 | 146 | 0.0 | 1.0 | 0.00 | 0.00 | 0.00 | 79 | 1014.9 |
| 20260508101540 | 43 | 145 | 0.0 | 2.0 | 0.00 | 0.00 | 0.00 | 80 | 1014.8 |
| 20260508101013 | 43 | 0 | 0.0 | 2.0 | 0.00 | 0.00 | 0.00 | 81 | 1014.9 |
| 20260508100511 | 43 | 139 | 0.0 | 2.0 | 0.00 | 0.00 | 0.00 | 81 | 1014.8 |
| 20260508100034 | 43 | 0 | 1.0 | 3.0 | 0.00 | 0.00 | 0.00 | 82 | 1014.7 |
| 20260508095513 | 43 | 127 | 0.0 | 3.0 | 0.00 | 0.00 | 0.00 | 83 | 1015.0 |
| 20260508095013 | 43 | 134 | 0.0 | 2.0 | 0.00 | 0.00 | 0.00 | 84 | 1015.0 |
| 20260508094531 | 42 | 129 | 0.0 | 1.0 | 0.00 | 0.00 | 0.00 | 85 | 1015.0 |
| 20260508094019 | 42 | 145 | 0.0 | 1.0 | 0.00 | 0.00 | 0.00 | 85 | 1014.9 |
| 20260508093513 | 42 | 89 | 0.0 | 2.0 | 0.00 | 0.00 | 0.00 | 85 | 1014.9 |
| 20260508093036 | 42 | 89 | 1.0 | 2.0 | 0.00 | 0.00 | 0.00 | 85 | 1014.9 |
| 20260508092513 | 43 | 90 | 1.0 | 2.0 | 0.00 | 0.00 | 0.00 | 84 | 1014.9 |
| 20260508092011 | 43 | 96 | 1.0 | 2.0 | 0.00 | 0.00 | 0.00 | 84 | 1015.0 |
| 20260508091534 | 43 | 131 | 1.0 | 1.0 | 0.00 | 0.00 | 0.00 | 83 | 1015.0 |
| 20260508091011 | 43 | 131 | 0.0 | 1.0 | 0.00 | 0.00 | 0.00 | 83 | 1015.0 |
| 20260508090511 | 44 | 0 | 0.0 | 1.0 | 0.00 | 0.00 | 0.00 | 83 | 1015.0 |
| 20260508090035 | 44 | 0 | 0.0 | 1.0 | 0.00 | 0.00 | 0.00 | 82 | 1014.9 |
| 20260508085513 | 44 | 0 | 0.0 | 1.0 | 0.00 | 0.00 | 0.00 | 83 | 1014.9 |
| 20260508085015 | 44 | 0 | 0.0 | 1.0 | 0.00 | 0.00 | 0.00 | 82 | 1014.7 |
| 20260508084532 | 44 | 0 | 0.0 | 1.0 | 0.00 | 0.00 | 0.00 | 82 | 1014.9 |
| 20260508084013 | 44 | 0 | 0.0 | 1.0 | 0.00 | 0.00 | 0.00 | 82 | 1014.7 |
| 20260508083512 | 43 | 0 | 0.0 | 1.0 | 0.00 | 0.00 | 0.00 | 82 | 1014.7 |
| 20260508083030 | 43 | 0 | 0.0 | 1.0 | 0.00 | 0.00 | 0.00 | 84 | 1014.8 |
| 20260508082512 | 43 | 131 | 0.0 | 1.0 | 0.00 | 0.00 | 0.00 | 86 | 1014.9 |
| 20260508082013 | 43 | 0 | 0.0 | 1.0 | 0.00 | 0.00 | 0.00 | 86 | 1014.9 |
| 20260508081534 | 43 | 0 | 0.0 | 1.0 | 0.00 | 0.00 | 0.00 | 86 | 1014.8 |
| 20260508081012 | 43 | 131 | 0.0 | 1.0 | 0.00 | 0.00 | 0.00 | 86 | 1015.0 |
| 20260508080513 | 43 | 131 | 0.0 | 1.0 | 0.00 | 0.00 | 0.00 | 86 | 1014.9 |
| 20260508080052 | 43 | 0 | 0.0 | 1.0 | 0.00 | 0.00 | 0.00 | 86 | 1014.8 |
| 20260508075514 | 43 | 0 | 0.0 | 1.0 | 0.00 | 0.00 | 0.00 | 85 | 1014.7 |
| 20260508075013 | 43 | 0 | 0.0 | 1.0 | 0.00 | 0.00 | 0.00 | 85 | 1014.8 |
| 20260508074530 | 43 | 0 | 0.0 | 1.0 | 0.00 | 0.00 | 0.00 | 85 | 1014.7 |
| 20260508074013 | 43 | 0 | 0.0 | 1.0 | 0.00 | 0.00 | 0.00 | 85 | 1014.7 |
| 20260508073514 | 44 | 0 | 0.0 | 1.0 | 0.00 | 0.00 | 0.00 | 84 | 1014.7 |
| 20260508073032 | 43 | 0 | 0.0 | 1.0 | 0.00 | 0.00 | 0.00 | 84 | 1014.7 |
| 20260508072512 | 43 | 0 | 0.0 | 1.0 | 0.00 | 0.00 | 0.00 | 85 | 1014.9 |
| 20260508072012 | 43 | 131 | 0.0 | 1.0 | 0.00 | 0.00 | 0.00 | 85 | 1014.8 |
| 20260508071531 | 43 | 131 | 0.0 | 1.0 | 0.00 | 0.00 | 0.00 | 86 | 1014.8 |
| 20260508071012 | 43 | 0 | 0.0 | 1.0 | 0.00 | 0.00 | 0.00 | 86 | 1015.0 |
| 20260508070513 | 43 | 0 | 0.0 | 1.0 | 0.00 | 0.00 | 0.00 | 86 | 1014.9 |
| 20260508070031 | 43 | 0 | 0.0 | 1.0 | 0.00 | 0.00 | 0.00 | 85 | 1015.0 |